User: anonymous
Location: Unspecified
(0.0000°N, 0.0000°E)
Time: 14:42:50
(UTC+02:00)
Language:

ARIANE 5 R/B - Orbit

View from above orbital plane
View from above orbital plane
View from above satellite
View from above satellite

Ground track
Ground track

The orbit data is extracted from the following two-line orbital elements,

1 28787U 05028B   14208.33843361 -.00000132  00000-0 -50330-3 0  5025
2 28787 006.9087 080.2461 7157419 126.0303 030.5424 02.26536573 74170
Epoch (UTC): 27 July 2014 08:07:20
Eccentricity: 0.7157419
inclination: 6.9087°
perigee height: 583 km
apogee height: 35639 km
right ascension of ascending node: 80.2461°
argument of perigee: 126.0303°
revolutions per day: 2.26536573
mean anomaly at epoch: 30.5424°
orbit number at epoch: 7417

The dashed part of the orbit path shows where the satellite is in the earth's shadow,  

DLR